DW3277 Weather Reports


Display with metric or nautical units.
time (UTC)temp
F
wind
direction
speed
MPH
gust
MPH
rain 1hr
in
rain 24hr
in
rain mn
in
humidity
%
barometer
mb
20220527164539 67 53 0.0 0.0 0.00 0.00 0.09 74 1010.3
20220527163030 67 53 0.0 0.0 0.00 0.00 0.09 75 1010.5
20220527161520 65 53 0.0 0.0 0.00 0.00 0.09 77 1010.6
20220527160017 65 53 0.0 0.0 0.00 0.00 0.09 81 1010.8
20220527154515 64 53 0.0 0.0 0.00 0.00 0.09 85 1010.8
20220527153012 63 53 0.0 0.0 0.00 0.00 0.09 88 1010.9
20220527151510 63 53 0.0 0.0 0.00 0.00 0.09 90 1010.8
20220527150008 62 53 0.0 0.0 0.00 0.00 0.09 91 1010.8
20220527144505 61 53 0.0 0.0 0.00 0.00 0.09 91 1010.9
20220527143004 61 53 0.0 0.0 0.00 0.00 0.09 92 1010.7
20220527141602 60 53 0.0 0.0 0.00 0.00 0.09 92 1010.8
20220527140107 58 53 0.0 0.0 0.00 0.00 0.09 92 1010.9
20220527134610 58 53 0.0 0.0 0.00 0.00 0.09 92 1010.9
20220527133100 58 53 0.0 0.0 0.00 0.00 0.09 92 1010.8
20220527131559 58 53 0.0 0.0 0.00 0.00 0.09 92 1010.6
20220527130055 58 53 0.0 0.0 0.00 0.00 0.09 92 1010.5
20220527124559 57 53 0.0 0.0 0.00 0.00 0.09 91 1010.4
20220527123057 58 53 0.0 0.0 0.00 0.00 0.09 91 1010.3
20220527121551 58 53 0.0 0.0 0.00 0.00 0.09 92 1010.2
20220527120049 58 53 0.0 0.0 0.00 0.00 0.09 91 1010.2
20220527114559 58 53 0.0 0.0 0.00 0.00 0.09 91 1010.1
20220527113046 58 53 0.0 0.0 0.00 0.00 0.09 91 1010.1
20220527111547 59 53 0.0 0.0 0.00 0.00 0.09 91 1010.0
20220527110042 59 53 0.0 0.0 0.00 0.00 0.09 91 1009.9
20220527104557 59 53 0.0 0.0 0.00 0.00 0.09 91 1010.0
20220527103041 59 53 0.0 0.0 0.00 0.00 0.09 91 1009.9
20220527101540 59 52 0.0 0.0 0.00 0.00 0.09 91 1009.8
20220527100103 59 53 0.0 0.0 0.00 0.00 0.09 91 1009.8
20220527094603 59 53 0.0 0.0 0.00 0.00 0.09 91 1009.6
20220527093037 59 53 0.0 0.0 0.00 0.00 0.08 91 1009.7
20220527091546 59 53 0.0 0.0 0.00 0.00 0.08 91 1009.3
20220527090033 59 52 0.0 0.0 0.00 0.00 0.07 91 1009.3
20220527084534 59 53 0.0 0.0 0.00 0.00 0.07 91 1009.0
20220527083033 59 53 0.0 0.0 0.00 0.00 0.06 90 1009.1
20220527081535 59 53 0.0 0.0 0.00 0.00 0.05 90 1009.2
20220527080034 59 53 0.0 0.0 0.00 0.00 0.05 90 1009.1
20220527074527 59 53 0.0 0.0 0.00 0.00 0.01 90 1008.5
20220527073028 59 53 1.0 0.0 0.00 0.00 0.01 90 1008.0
20220527071532 60 47 0.0 0.0 0.00 0.00 0.01 89 1007.9
20220527070019 60 46 0.0 0.0 0.00 0.00 0.01 89 1007.3
20220527064518 60 47 0.0 0.0 0.00 0.00 0.14 88 1007.7
20220527063020 60 47 0.0 0.0 0.00 0.00 0.14 88 1007.6
20220527061516 60 47 0.0 0.0 0.00 0.00 0.14 87 1007.3
20220527060022 61 48 0.0 0.0 0.00 0.00 0.14 85 1007.0
20220527054516 62 48 0.0 0.0 0.00 0.00 0.14 82 1007.5
20220527053030 63 48 0.0 0.0 0.00 0.00 0.09 79 1008.4
20220527051524 64 48 3.0 0.0 0.00 0.00 0.03 74 1008.1
20220527050013 66 233 5.0 0.0 0.00 0.00 0.01 70 1007.9
20220527044512 66 187 3.0 0.0 0.00 0.00 0.00 78 1006.8
20220527043021 66 274 0.0 0.0 0.00 0.00 0.00 79 1006.0
20220527041511 66 274 0.0 0.0 0.00 0.00 0.00 76 1005.7
20220527040011 67 274 0.0 0.0 0.00 0.00 0.00 74 1004.7
20220527034510 68 274 0.0 0.0 0.00 0.00 0.00 74 1003.9
20220527033010 68 274 0.0 0.0 0.00 0.00 0.00 72 1004.0
20220527031509 70 274 0.0 0.0 0.00 0.00 0.00 69 1003.8
20220527030008 70 274 0.0 0.0 0.00 0.00 0.00 68 1003.7
20220527024510 71 274 0.0 0.0 0.00 0.00 0.00 67 1003.7
20220527023017 72 274 0.0 0.0 0.00 0.00 0.00 67 1003.8
20220527021505 72 274 0.0 0.0 0.00 0.00 0.00 65 1003.9
20220527020004 73 274 0.0 0.0 0.00 0.00 0.00 63 1004.2
20220527014503 74 274 0.0 0.0 0.00 0.00 0.00 62 1004.2
20220527013002 74 274 0.0 0.0 0.00 0.00 0.00 62 1004.2
20220527011502 75 274 0.0 0.0 0.00 0.00 0.00 61 1004.3
20220527010100 76 274 0.0 0.0 0.00 0.00 0.00 58 1004.4
20220527004611 76 274 0.0 0.0 0.00 0.00 0.00 57 1004.3
20220527003059 77 274 0.0 0.0 0.00 0.00 0.00 55 1004.5
20220527001556 78 274 0.0 0.0 0.00 0.00 0.00 52 1004.7
20220527000112 79 274 0.0 0.0 0.00 0.00 0.00 47 1004.7
20220526234554 80 274 0.0 0.0 0.00 0.00 0.00 45 1004.9
20220526233108 81 274 0.0 0.0 0.00 0.00 0.00 41 1005.0
20220526231553 81 274 0.0 0.0 0.00 0.00 0.00 37 1005.0
20220526230051 81 274 0.0 0.0 0.00 0.00 0.00 37 1005.1
20220526224604 81 274 0.0 0.0 0.00 0.00 0.00 37 1005.2
20220526223049 81 274 0.0 0.0 0.00 0.00 0.00 38 1005.5
20220526221547 81 274 1.0 0.0 0.00 0.00 0.00 36 1005.7
20220526220044 81 274 1.0 0.0 0.00 0.00 0.00 37 1006.0
20220526214552 81 274 1.0 0.0 0.00 0.00 0.00 37 1006.1
20220526213040 80 274 2.0 0.0 0.00 0.00 0.00 38 1006.4
20220526211538 80 274 1.0 0.0 0.00 0.00 0.00 39 1006.6
20220526210036 80 274 1.0 0.0 0.00 0.00 0.00 39 1006.8
20220526204532 80 274 1.0 0.0 0.00 0.00 0.00 43 1007.1
20220526203031 79 274 1.0 0.0 0.00 0.00 0.00 46 1007.3
20220526201526 78 274 1.0 0.0 0.00 0.00 0.00 48 1007.5
20220526200023 77 274 1.0 0.0 0.00 0.00 0.00 51 1007.7
20220526194521 76 274 1.0 0.0 0.00 0.00 0.00 52 1008.0
20220526193017 76 274 1.0 0.0 0.00 0.00 0.00 52 1008.3
20220526191513 75 274 0.0 0.0 0.00 0.00 0.00 53 1008.6
20220526190010 74 274 0.0 0.0 0.00 0.00 0.00 57 1008.9
20220526184507 73 274 0.0 0.0 0.00 0.00 0.00 54 1009.2
20220526183003 72 274 0.0 0.0 0.00 0.00 0.00 55 1009.4
20220526181601 72 274 0.0 0.0 0.00 0.00 0.00 57 1009.8
20220526180108 71 274 0.0 0.0 0.00 0.00 0.00 58 1010.1
20220526174553 70 274 0.0 0.0 0.00 0.00 0.00 59 1010.4
20220526173109 70 274 0.0 0.0 0.00 0.00 0.00 60 1010.6
20220526171554 68 274 0.0 0.0 0.00 0.00 0.00 64 1010.9
20220526170104 66 274 0.0 0.0 0.00 0.00 0.00 63 1011.1